Location: Brachbach
(49.1847°N, 9.7240°E)
Time: 04:20:47
(UTC+00:00)

STARS - Pass Details

Date: 15 March 2026
Orbit: 575 x 588 km, 98.2° (Epoch: 15 April)

Event Time Altitude Azimuth Distance (km) Brightness Sun altitude
Rises 02:14:51 0° 6° (N) 2,802 ? -31.4°
Reaches altitude 10° 02:17:08 10° 358° (N) 1,898 ? -31.1°
Enters shadow 02:17:46 14° 353° (N) 1,665 ? -31.0°
